Dundee, United Kingdom

4:40 AM BST on June 28, 2017 (GMT +0100)
Dundee

Weather History for EGPN - April, 2014

Change the Weather History Date:

Thursday, April 24, 2014

  Actual Average Record
Temperature  
Mean Temperature 50 °F -  
Max Temperature 53 °F 55 °F 64 °F (2015)
Min Temperature 48 °F 45 °F 37 °F (2001)
Degree Days  
Heating Degree Days 14    
Moisture  
Dew Point 48 °F    
Average Humidity 87    
Maximum Humidity 94    
Minimum Humidity 82    
Precipitation  
Precipitation 0.00 in - - ()
Sea Level Pressure  
Sea Level Pressure 30.10 in    
Wind  
Wind Speed 6 mph ()    
Max Wind Speed 12 mph    
Max Gust Speed -    
Visibility 6.2 miles    
Events Rain    
Averages and records for this station are not official NWS values.
T = Trace of Precipitation, MM = Missing Value Source: Averaged Metar Reports

Daily Weather History Graph

Daily Weather History Graph

Search for Another Location

Airport or City:

Trip Planner

Search our weather history database for the weather conditions in past years. The results will help you decide how hot, cold, wet, or windy it might be!

Date:

Astronomy

Apr. 24, 2014 Rise Set
Actual Time 5:43 AM BST 8:38 PM BST
Civil Twilight 5:00 AM BST 9:21 PM BST
Nautical Twilight 4:03 AM BST 10:19 PM BST
Astronomical Twilight 2:45 AM BST 11:40 PM BST
Moon 3:45 AM BST (4/24) 2:41 PM BST (4/24)
Length of Visible Light 16h 21m
Length of Day
14h 55m
Waning Crescent, 27% of the Moon is Illuminated
Apr 24
Waning Crescent
Apr 29
New
May 7
First Quarter
May 14
Full
May 21
Last Quarter

Hourly Weather History & Observations

Time (BST) Temp. Dew Point Humidity Pressure Visibility Wind Dir Wind Speed Gust Speed Precip Events Conditions
6:20 AM 48.2 °F 46.4 °F 93% 30.06 in 6.2 mi ENE 4.6 mph - N/A   Mostly Cloudy
6:50 AM 50.0 °F 48.2 °F 94% 30.06 in 6.2 mi East 3.5 mph - N/A Rain Light Rain
7:20 AM 50.0 °F 48.2 °F 94% 30.09 in 6.2 mi East 3.5 mph - N/A Rain Light Rain
7:50 AM 50.0 °F 48.2 °F 94% 30.09 in 6.2 mi East 3.5 mph - N/A Rain Light Rain
8:20 AM 50.0 °F 48.2 °F 94% 30.09 in 6.2 mi East 4.6 mph - N/A   Scattered Clouds
8:50 AM 50.0 °F 48.2 °F 94% 30.09 in 6.2 mi East 6.9 mph - N/A   Scattered Clouds
9:20 AM 51.8 °F 48.2 °F 88% 30.12 in 6.2 mi East 6.9 mph - N/A   Mostly Cloudy
9:50 AM 51.8 °F 48.2 °F 88% 30.12 in 6.2 mi East 6.9 mph - N/A   Mostly Cloudy
10:20 AM 51.8 °F 48.2 °F 88% 30.12 in 6.2 mi East 5.8 mph - N/A   Scattered Clouds
10:50 AM 53.6 °F 48.2 °F 82% 30.12 in 6.2 mi East 6.9 mph - N/A   Mostly Cloudy
11:20 AM 53.6 °F 48.2 °F 82% 30.09 in 6.2 mi East 5.8 mph - N/A   Mostly Cloudy
11:50 AM 51.8 °F 46.4 °F 82% 30.09 in 6.2 mi ENE 9.2 mph - N/A   Mostly Cloudy
12:20 PM 51.8 °F 46.4 °F 82% 30.09 in 6.2 mi East 11.5 mph - N/A   Mostly Cloudy
12:50 PM 51.8 °F 48.2 °F 88% 30.12 in 6.2 mi ENE 9.2 mph - N/A   Mostly Cloudy
1:20 PM 51.8 °F 46.4 °F 82% 30.12 in 6.2 mi ENE 9.2 mph - N/A   Mostly Cloudy
1:50 PM 51.8 °F 46.4 °F 82% 30.12 in 6.2 mi ENE 9.2 mph - N/A   Mostly Cloudy
2:20 PM 51.8 °F 48.2 °F 88% 30.12 in 6.2 mi NE 6.9 mph - N/A   Mostly Cloudy
2:50 PM 53.6 °F 48.2 °F 82% 30.12 in 6.2 mi East 9.2 mph - N/A   Scattered Clouds
3:20 PM 53.6 °F 50.0 °F 88% 30.09 in 6.2 mi East 11.5 mph - N/A Rain Rain Showers
3:50 PM 53.6 °F 50.0 °F 88% 30.09 in 6.2 mi ENE 10.4 mph - N/A   Scattered Clouds
4:20 PM 53.6 °F 50.0 °F 88% 30.09 in 6.2 mi East 10.4 mph - N/A   Scattered Clouds
4:50 PM 51.8 °F 48.2 °F 88% 30.09 in 6.2 mi East 10.4 mph - N/A   Scattered Clouds
5:20 PM 51.8 °F 46.4 °F 82% 30.09 in 6.2 mi East 8.1 mph - N/A   Scattered Clouds
5:50 PM 51.8 °F 46.4 °F 82% 30.09 in 6.2 mi ENE 8.1 mph - N/A   Scattered Clouds
6:20 PM 51.8 °F 46.4 °F 82% 30.09 in 6.2 mi East 10.4 mph - N/A   Scattered Clouds
6:50 PM 51.8 °F 48.2 °F 88% 30.12 in 6.2 mi East 8.1 mph - N/A   Partly Cloudy
7:20 PM 51.8 °F 46.4 °F 82% 30.12 in 6.2 mi East 8.1 mph - N/A   Partly Cloudy
7:50 PM 51.8 °F 46.4 °F 82% 30.12 in 6.2 mi ENE 6.9 mph - N/A   Partly Cloudy